Location: Mohawk View
(42.7837°N, 73.7885°W)
Time: 00:17:52
(UTC+00:00)

Cosmos 1726 Rocket - Pass Details

Date: 17 June 2021
Orbit: 602 x 630 km, 82.5° (Epoch: 02 August)

Event Time Altitude Azimuth Distance (km) Brightness Sun altitude
Rises 04:20:01 0° 347° (NNW) 2,931 8.5 -23.3°
Reaches altitude 10° 04:22:18 10° 342° (NNW) 2,018 7.3 -23.4°
Maximum altitude 04:26:39 53° 266° (W) 772 4.0 -23.5°
Enters shadow 04:26:55 52° 251° (WSW) 781 3.9 -23.5°
